Погода в Глыбокой

Украина / Черновицкая область     48°05′23″N   25°55′41″E
темп.,
°C
ветер,
м/с
пор.,
м/с
влажн.,
%
обл.,
%
осадки,
мм/ч
давл.,
гПа
погр.,
м
12 августа, пт
пт1200:00+15з22750 0.0 102026
03:00+13зсз33845 0.0 102037
06:00+13зсз368264 0.0 1020136
09:00+18сз576573 0.0 1019419
12:00+20сз6867100 0.2 1019542
15:00+20сз4777100 0.6 1018551
18:00+19с368889 3.8 1017207
21:00+17сз349567 4.2 101874
13 августа, сб
сб1300:00+16сз23958 0.1 101739
03:00+15зсз339646 0.1 101655
06:00+14зсз359796 0.0 1015104
09:00+16зсз3894100 0.1 1015300
12:00+19сз578499 0.0 1014524
15:00+24ссз556294 0.0 10121061
18:00+24с3465100 0.8 1010884
21:00+19зсз4890100 7.3 1010144
14 августа, вс
вс1400:00+17зсз3995100 1.4 1010192
03:00+17зсз41096100 3.5 1009256
06:00+16сз41098100 1.1 1009327
09:00+18сз6993100 1.4 1009457
12:00+20сз6782100 0.0 1010648
15:00+24ссз5566100 0.1 10091039
18:00+24ссв456329 0.0 10081081
21:00+17ю3695100 8.1 1008137
15 августа, пн
пн1500:00+17ююз0091100 0.7 100811
03:00+16з1190100 0.7 100811
06:00+16зсз1190100 0.0 100711
09:00+19зсз2281100 0.0 1007161
12:00+24сз2260100 0.0 1007599
15:00+26с1151100 0.0 10061080
18:00+26ссв115141 0.0 10071196
21:00+18юз228191 1.4 100724
16 августа, вт
вт1600:00+18юз2283100 0.5 100816
03:00+16зюз22815 0.5 100711
06:00+16зюз11835 0.0 100811
09:00+21юз116814 0.0 1008159
12:00+25з125264 0.0 1008511
15:00+29св12398 0.0 10071308
18:00+26ссв225648 0.4 1008278
21:00+18всв119112 2.4 101014